TimeEST,TemperatureF,Dew PointF,Humidity,Sea Level PressureIn,VisibilityMPH,Wind Direction,Wind SpeedMPH,Gust SpeedMPH,PrecipitationIn,Events,Conditions,WindDirDegrees,DateUTC
12:53 AM,37.9,34.0,86,30.18,10.0,Calm,Calm,-,N/A,,Clear,0,2012-12-15 05:53:00
1:53 AM,37.0,34.0,89,30.18,10.0,Calm,Calm,-,N/A,,Clear,0,2012-12-15 06:53:00
2:53 AM,37.9,35.1,89,30.19,10.0,SSW,3.5,-,N/A,,Clear,200,2012-12-15 07:53:00
3:53 AM,39.0,34.0,82,30.19,10.0,ESE,4.6,-,N/A,,Clear,120,2012-12-15 08:53:00
4:53 AM,37.9,35.1,89,30.14,10.0,East,3.5,-,N/A,,Clear,90,2012-12-15 09:53:00
5:53 AM,37.9,34.0,86,30.18,10.0,Calm,Calm,-,N/A,,Clear,0,2012-12-15 10:53:00
6:53 AM,39.0,35.1,86,30.20,10.0,Calm,Calm,-,N/A,,Partly Cloudy,0,2012-12-15 11:53:00
7:53 AM,39.0,35.1,86,30.21,10.0,Calm,Calm,-,N/A,,Partly Cloudy,0,2012-12-15 12:53:00
8:53 AM,41.0,36.0,82,30.20,10.0,ENE,3.5,-,N/A,,Partly Cloudy,60,2012-12-15 13:53:00
9:53 AM,44.1,39.0,82,30.20,10.0,Calm,Calm,-,N/A,,Scattered Clouds,0,2012-12-15 14:53:00
10:53 AM,48.9,37.9,66,30.19,10.0,Calm,Calm,-,N/A,,Partly Cloudy,0,2012-12-15 15:53:00
11:53 AM,52.0,37.0,57,30.13,10.0,Calm,Calm,-,N/A,,Mostly Cloudy,0,2012-12-15 16:53:00
12:53 PM,53.1,37.0,55,30.09,10.0,Calm,Calm,-,N/A,,Overcast,0,2012-12-15 17:53:00
1:53 PM,55.0,37.9,53,30.04,10.0,Calm,Calm,-,N/A,,Scattered Clouds,0,2012-12-15 18:53:00
2:53 PM,57.9,39.0,49,30.02,10.0,SW,10.4,-,N/A,,Scattered Clouds,230,2012-12-15 19:53:00
3:53 PM,57.9,39.9,51,30.00,10.0,SW,5.8,-,N/A,,Scattered Clouds,230,2012-12-15 20:53:00
4:53 PM,55.9,39.9,55,29.99,10.0,Calm,Calm,-,N/A,,Scattered Clouds,0,2012-12-15 21:53:00
5:53 PM,55.9,41.0,57,30.00,10.0,Calm,Calm,-,N/A,,Mostly Cloudy,0,2012-12-15 22:53:00
6:53 PM,55.0,39.9,57,29.99,10.0,South,3.5,-,N/A,,Mostly Cloudy,170,2012-12-15 23:53:00
7:53 PM,55.0,42.1,62,29.99,10.0,West,5.8,-,N/A,,Overcast,260,2012-12-16 00:53:00
8:53 PM,51.1,41.0,68,29.98,10.0,West,4.6,-,N/A,,Mostly Cloudy,270,2012-12-16 01:53:00
9:53 PM,52.0,42.1,69,29.98,10.0,Calm,Calm,-,N/A,,Overcast,0,2012-12-16 02:53:00
10:53 PM,51.1,45.0,80,29.99,4.0,West,4.6,-,0.02,Rain,Rain,280,2012-12-16 03:53:00
11:53 PM,52.0,46.9,83,29.99,9.0,SW,8.1,-,0.04,Rain,Light Rain,230,2012-12-16 04:53:00